Theta_e
296 297 297 296 296 296 296 296 296 296 296 297 297 297 298 298 299 295 292 293 287 279 285 286 286 284 282 282 276 280 279 280 277 274 270 267 263 267 264 267 265 266 264 262 265 266 263 273 275 271 270 265 266 264
297 296 296 296 296 296 296 295 296 296 296 297 297 298 298 298 299 297 290 293 292 285 283 287 286 287 287 287 281 279 280 277 278 271 269 271 267 268 263 263 273 267 271 268 270 270 273 271 272 268 266 268 267 270
298 297 296 296 295 296 296 295 295 295 296 296 297 298 298 298 299 295 291 290 288 284 283 284 282 285 288 287 289 280 281 283 280 282 277 272 267 273 263 267 270 274 277 274 274 274 272 271 273 272 271 274 276 275
297 296 296 295 295 296 295 295 294 295 295 296 297 297 297 298 300 296 291 290 286 282 273 277 287 283 287 289 288 288 285 285 284 281 276 273 268 276 272 274 273 276 277 275 274 276 275 276 277 276 274 273 274 274
296 295 295 295 295 295 295 295 294 294 295 296 296 297 297 298 299 294 292 290 288 282 274 277 282 282 284 285 287 287 288 284 280 280 272 270 275 275 272 273 271 278 276 275 274 279 279 278 277 277 276 274 274 273
295 295 295 295 295 295 295 295 294 294 295 296 296 297 297 298 295 289 284 290 286 284 274 267 275 273 275 280 284 285 286 285 285 276 273 277 280 277 272 271 276 278 279 280 278 277 277 276 276 276 275 274 273 272
294 295 295 295 296 296 295 294 294 294 295 295 296 296 297 298 293 286 283 285 290 285 273 267 269 277 280 276 277 283 285 284 283 282 276 276 277 277 272 265 277 278 278 276 276 277 274 275 273 273 272 270 269 267
294 294 295 295 295 294 294 294 294 294 295 295 296 297 295 295 291 284 288 294 288 280 274 266 266 272 278 276 272 276 277 276 276 278 276 275 277 274 268 274 277 277 275 273 273 274 275 273 272 271 270 269 267 268
295 294 295 294 293 293 293 294 294 294 295 296 296 295 289 286 283 283 293 290 285 278 266 264 264 264 277 273 273 276 274 270 268 271 270 274 269 270 273 275 276 274 274 273 269 269 269 269 268 267 265 264 265 266
294 294 294 294 293 293 293 293 294 295 296 295 289 284 280 283 291 292 285 278 276 272 269 265 263 266 275 272 269 267 272 266 265 266 269 267 267 271 274 275 276 275 273 270 266 264 262 262 265 264 264 262 263 261
294 294 294 293 293 293 293 294 294 295 292 285 282 280 285 291 284 282 276 270 267 272 270 264 264 268 273 267 265 269 265 262 260 264 265 260 264 270 268 267 267 273 272 271 264 266 265 267 265 263 260 258 257 256
294 293 294 294 293 294 294 294 295 288 285 286 285 286 284 281 278 274 270 269 268 264 268 265 266 268 267 271 266 265 261 261 258 260 264 260 268 268 264 263 263 264 268 263 260 266 263 266 264 262 259 257 258 257
294 293 293 294 292 293 294 295 294 293 290 286 283 278 275 272 272 266 266 263 266 268 268 265 266 267 265 268 261 262 258 258 258 263 260 266 269 268 263 259 260 258 262 263 259 256 258 257 255 258 260 256 254 254
293 292 292 293 293 294 295 294 294 290 285 280 275 271 271 266 264 262 262 264 268 267 269 270 273 268 261 264 260 258 258 258 255 256 261 266 268 268 263 260 262 259 258 262 263 256 256 257 257 255 257 255 255 257
293 292 290 291 293 294 295 292 288 280 277 273 274 267 262 261 258 260 260 263 267 274 270 266 266 270 268 262 259 256 256 254 258 261 264 267 264 261 261 260 260 259 255 255 254 255 256 257 257 259 259 260 259 255
292 291 289 292 294 294 292 288 284 279 272 268 265 262 257 261 260 262 264 273 270 270 266 265 259 259 259 260 258 257 257 258 263 261 264 261 259 257 258 259 259 259 258 257 256 260 262 261 262 264 258 257 258 258
289 284 292 294 292 290 289 282 280 274 271 265 262 258 261 262 264 265 266 267 267 268 264 260 259 259 262 257 257 257 259 262 264 263 259 259 260 259 257 258 259 261 261 263 260 262 262 261 258 258 261 260 259 260
283 285 290 290 287 283 277 276 276 272 266 266 265 261 261 263 263 263 263 266 269 264 263 263 263 257 256 257 257 262 260 260 257 260 261 259 258 258 258 260 258 259 262 264 264 263 262 260 257 262 257 259 255 254
286 288 287 288 285 279 273 272 272 264 263 264 263 264 264 265 265 266 264 264 262 263 266 261 259 257 259 259 262 261 258 260 263 264 261 258 259 260 260 257 258 259 261 262 261 262 261 260 260 258 259 255 259 257
289 288 288 284 285 278 271 267 269 267 263 265 267 266 266 267 268 266 264 264 264 261 264 261 261 261 264 264 263 262 262 261 260 260 261 263 259 256 258 258 259 257 256 255 254 256 255 256 254 255 254 255 255 260
284 285 284 278 272 269 267 266 266 266 265 263 262 264 265 265 267 267 261 260 264 260 262 261 261 263 257 257 256 258 261 262 263 265 265 263 261 259 259 257 255 254 257 254 256 256 255 256 257 254 254 255 255 256
278 283 275 276 270 266 264 263 266 265 266 263 264 263 262 260 260 261 257 262 261 264 263 262 260 259 259 261 260 257 259 257 255 257 258 259 263 261 259 257 257 258 254 255 254 255 255 254 253 252 252 254 253 253
281 277 269 268 269 266 263 262 261 259 262 260 257 258 257 255 254 257 257 257 262 262 259 259 257 252 257 253 252 254 252 257 258 255 255 257 256 254 254 254 253 256 255 254 251 252 253 254 253 253 252 253 251 253
276 266 264 262 262 261 256 257 258 259 259 259 258 257 257 254 254 255 257 257 263 255 256 256 253 257 256 255 257 259 257 256 255 253 251 256 257 256 252 253 251 251 253 252 251 252 251 251 252 251 250 249 250 250
269 265 264 260 256 259 257 256 255 258 256 253 256 255 254 252 256 254 256 261 257 255 254 250 251 254 261 254 252 254 251 256 258 257 254 252 251 252 253 250 250 250 249 252 251 250 250 249 249 249 249 250 253 255
262 260 261 259 257 260 257 257 255 256 253 254 253 250 249 253 256 258 258 260 258 257 254 258 260 253 255 258 256 256 257 249 255 256 254 250 252 255 252 253 251 254 249 250 251 253 255 256 254 255 256 257 257 253
260 259 255 253 257 257 255 252 252 255 253 255 252 251 251 255 255 260 258 254 258 253 249 249 254 255 256 254 251 249 247 249 254 255 250 249 249 250 253 253 251 255 254 256 259 260 258 258 257 256 256 251 248 248
262 258 261 256 253 251 254 249 251 255 254 250 254 254 257 258 260 259 257 252 248 247 248 246 246 248 251 250 248 251 249 246 248 249 250 250 248 249 250 252 254 264 261 261 260 256 255 255 253 252 249 249 250 250
262 255 259 251 251 251 255 258 259 256 258 258 258 254 256 256 253 252 252 249 245 249 251 251 252 247 248 248 247 246 247 251 255 254 253 252 251 254 254 256 258 259 259 260 264 259 257 256 254 252 250 249 248 248
260 260 259 255 259 260 262 258 256 252 251 255 254 256 256 253 248 243 245 247 250 250 248 247 246 249 250 251 251 251 247 246 249 253 252 252 254 254 256 257 259 259 259 257 257 257 260 256 255 251 251 250 249 246
260 258 258 254 257 254 251 250 252 254 255 255 253 259 258 253 249 244 245 243 243 244 247 248 247 245 248 248 249 250 252 249 249 251 253 256 256 257 258 259 259 258 257 256 255 254 253 252 250 248 246 244 243 243
258 256 258 256 255 252 252 256 256 258 257 258 259 257 258 258 259 250 247 244 246 247 247 244 247 249 246 244 245 246 251 250 252 255 256 258 258 260 260 260 259 258 257 254 251 249 248 246 244 243 241 240 239 238
257 259 256 254 255 256 256 259 259 259 259 259 257 251 248 255 261 250 247 244 246 245 245 245 245 245 247 248 250 251 255 256 259 264 263 263 261 261 259 258 255 252 250 249 247 247 246 244 243 240 239 239 239 240
Wind_Speed
35 32 28 26 26 22 18 17 16 16 12 13 11 11 14 13 8 5 2 4 5 3 2 4 5 2 4 3 4 4 3 1 2 3 4 4 4 5 4 4 6 7 7 4 3 3 10 5 5 7 6 2 4 3
39 36 30 27 25 24 19 16 17 16 11 13 13 12 12 12 11 19 4 2 4 4 2 2 3 2 2 2 3 0 1 3 5 3 0 3 3 2 5 4 1 2 7 6 9 7 4 4 4 3 4 5 3 3
41 34 28 22 23 23 17 15 15 13 12 12 12 13 12 10 13 5 5 5 5 3 2 1 2 3 2 3 4 4 1 3 2 3 3 2 3 4 4 5 2 4 4 2 3 3 4 4 2 3 3 4 4 3
34 30 21 20 19 21 13 15 13 12 11 11 12 9 10 10 13 15 6 4 4 4 4 1 1 3 3 4 2 2 1 3 4 3 3 3 3 2 3 3 3 4 5 5 4 2 2 2 4 7 5 4 6 4
31 28 24 23 22 20 14 15 13 11 11 10 10 9 6 3 21 8 5 2 3 6 4 2 1 3 3 3 4 3 2 2 2 2 2 3 1 3 2 3 3 6 7 6 6 6 3 3 10 8 7 5 4 4
31 32 28 26 22 19 14 14 11 11 11 10 8 9 5 13 21 5 3 3 1 5 6 3 2 4 4 4 4 3 1 1 1 3 3 1 2 3 3 3 7 7 2 4 5 3 3 9 7 4 6 6 5 5
31 31 30 26 27 18 13 13 11 12 9 6 7 5 4 16 7 3 4 3 10 4 5 3 2 2 1 1 1 0 1 1 1 1 1 3 1 3 2 4 6 6 7 6 7 10 5 3 5 5 7 5 5 4
30 28 26 21 14 7 10 11 11 11 9 7 9 15 21 16 9 5 4 16 6 6 5 4 2 2 1 1 2 1 2 1 3 1 2 2 1 2 4 8 1 5 6 4 3 4 4 10 8 6 4 4 5 4
21 21 22 15 8 3 7 9 10 10 6 9 17 20 6 2 3 2 9 11 4 5 5 4 5 3 2 1 1 3 2 2 2 2 0 1 1 7 9 6 7 8 9 9 5 6 6 7 8 6 4 3 5 3
20 17 19 11 3 1 5 7 9 8 16 22 5 2 2 1 18 11 5 3 5 4 4 3 1 1 2 1 2 3 2 1 1 3 2 2 7 5 7 7 7 9 9 13 7 2 2 2 7 6 6 4 4 4
17 17 16 10 4 5 7 8 9 22 9 2 3 2 4 9 2 3 2 4 0 2 2 2 3 4 2 3 3 0 2 1 3 4 3 4 6 5 6 6 3 9 13 11 2 3 5 7 9 7 4 4 4 5
17 14 15 12 4 7 9 10 19 4 1 3 5 5 2 2 3 5 2 2 2 6 1 5 3 4 1 2 4 3 3 4 2 2 3 4 5 5 5 5 5 2 10 7 2 8 6 8 8 7 5 5 6 6
15 9 13 12 1 4 12 20 12 22 13 3 3 3 2 2 4 5 6 4 2 4 5 2 2 3 3 3 3 4 5 3 1 2 4 6 4 4 4 1 4 5 7 8 5 5 6 6 4 5 6 5 4 4
12 9 11 12 5 9 19 18 21 7 3 2 3 2 1 1 3 5 4 5 3 4 7 5 4 4 2 5 3 6 3 4 4 2 7 4 4 5 1 1 3 4 4 7 7 4 5 5 5 4 5 3 5 6
15 6 3 6 3 12 19 16 11 4 4 3 2 2 1 2 1 2 3 2 1 6 5 4 4 3 2 5 3 4 6 2 6 6 5 4 4 3 2 3 4 4 4 3 3 4 5 5 4 4 5 6 6 4
18 8 3 6 11 20 17 12 6 3 4 4 6 3 2 4 3 2 1 8 2 2 2 4 4 5 1 5 4 5 6 6 5 5 4 3 4 2 3 4 4 4 5 3 4 4 4 5 6 5 0 4 6 8
13 6 16 19 18 16 15 5 3 5 3 5 3 1 1 1 3 2 2 1 1 4 2 4 6 6 3 4 2 4 6 5 5 4 3 3 3 3 4 3 3 4 5 5 3 5 4 2 2 1 5 5 7 7
3 6 16 13 7 7 4 5 4 4 4 1 1 2 1 1 1 2 1 2 3 3 3 3 5 4 5 5 4 5 4 4 3 3 3 3 2 3 5 6 4 4 4 5 5 3 3 3 4 5 5 6 4 4
5 7 12 13 5 3 3 3 2 4 2 1 1 1 1 0 1 1 1 1 2 2 5 3 6 3 4 4 5 4 3 4 3 3 3 3 2 3 3 3 3 4 5 3 2 3 3 6 5 4 4 1 4 3
1 7 10 11 8 3 4 3 2 4 2 1 1 2 2 1 1 0 2 4 3 3 4 2 5 5 5 4 4 4 4 3 4 3 4 4 2 3 4 4 4 3 1 1 2 2 1 3 2 3 3 4 2 5
3 1 5 4 3 5 4 2 3 2 2 3 1 1 2 3 3 3 3 4 4 2 2 4 4 4 2 1 1 2 2 4 4 5 5 3 2 3 1 2 1 1 2 1 2 3 2 4 4 3 3 4 4 4
2 5 2 3 4 3 5 2 2 1 2 2 2 1 3 2 1 3 3 3 3 4 5 4 4 3 0 2 4 5 3 3 1 1 2 2 2 2 3 3 2 2 2 3 3 3 3 4 3 2 2 4 3 3
3 3 4 4 4 5 1 1 3 3 4 1 2 4 3 2 2 2 0 3 5 4 3 3 2 1 3 2 3 4 4 5 3 4 3 4 3 2 2 2 2 2 3 4 2 1 3 3 3 3 3 3 3 4
6 5 4 3 3 2 2 4 2 3 3 3 3 2 1 1 2 4 3 4 5 2 0 3 3 1 3 4 2 5 5 4 2 2 2 2 2 3 2 2 2 3 3 2 1 2 3 3 4 3 3 3 3 3
5 4 4 2 2 5 4 3 4 4 2 1 4 2 2 3 2 0 4 5 3 2 3 2 2 3 4 3 4 4 3 4 4 3 3 3 2 2 3 2 2 3 1 2 2 1 3 3 3 3 3 3 4 4
3 3 3 5 1 4 5 3 3 4 4 2 0 2 2 3 3 5 5 4 4 4 4 5 6 2 4 6 3 2 3 3 4 3 3 3 4 4 2 1 1 4 1 3 2 2 4 3 3 4 3 4 4 2
5 6 2 2 3 5 4 3 2 4 4 5 4 2 3 2 6 7 4 3 1 2 2 1 3 4 3 3 2 2 1 2 3 3 2 2 2 2 4 4 3 4 3 3 3 3 3 3 2 1 2 3 3 2
5 6 8 5 3 0 6 2 4 7 5 3 5 4 9 10 7 5 4 2 2 1 1 0 1 2 2 1 2 3 3 2 4 4 3 3 2 1 0 1 2 3 1 2 1 0 1 2 3 3 3 2 3 3
3 4 6 3 2 2 5 7 7 5 6 6 7 5 6 5 3 1 3 2 2 1 3 3 3 3 3 3 3 3 2 3 4 3 2 2 3 3 2 1 2 2 2 3 4 4 6 4 5 4 4 3 1 4
3 3 6 3 8 8 6 6 3 2 1 3 2 2 3 3 2 1 2 3 3 1 1 1 1 2 1 2 0 3 2 1 2 4 4 4 5 2 2 2 2 2 3 4 5 6 9 6 5 4 5 5 4 4
3 3 4 3 5 2 2 3 2 2 2 2 2 2 3 2 3 2 2 1 1 1 2 2 3 2 3 2 3 3 1 3 1 2 3 4 4 3 2 3 2 2 3 4 4 4 3 4 5 5 6 6 7 6
2 4 6 3 2 3 2 2 2 2 1 1 0 1 1 3 2 2 2 2 2 3 1 1 3 1 2 3 3 3 2 3 3 3 5 4 4 4 4 3 3 3 5 5 5 5 7 7 5 5 4 5 5 5
2 3 3 4 3 1 2 3 1 2 2 0 1 2 1 1 5 2 2 1 2 3 2 3 3 3 3 2 1 2 3 3 5 9 9 9 8 7 4 4 4 5 7 6 6 6 7 7 5 5 5 5 5 6
Wind_Direction
319 316 314 315 310 308 301 287 279 277 266 264 269 262 273 254 229 129 152 173 125 139 79 31 1 9 24 83 132 153 98 165 87 159 146 222 124 220 93 184 178 157 144 193 140 186 266 158 91 164 211 357 148 145
311 302 298 305 303 299 291 283 276 276 263 257 263 253 262 265 220 175 137 125 87 84 104 47 70 13 8 58 128 107 142 165 175 97 53 107 91 91 161 213 180 233 182 185 183 215 220 212 169 223 149 142 200 148
326 308 293 293 296 298 283 278 264 264 257 252 268 260 259 257 160 151 133 141 82 110 83 167 94 56 34 21 295 131 283 178 91 168 155 165 129 127 153 238 175 262 177 210 58 264 209 162 79 148 158 140 133 111
338 347 330 299 298 305 278 272 258 250 253 248 259 243 250 265 208 161 149 160 103 114 120 124 174 44 338 345 23 352 104 49 103 74 102 137 149 135 205 183 167 199 139 196 261 288 40 206 186 158 151 120 108 102
333 335 325 312 304 300 278 259 250 238 240 243 253 228 210 259 129 113 114 105 131 125 151 115 79 5 341 337 50 33 53 72 84 78 81 208 153 91 341 57 253 186 186 181 220 203 169 178 152 149 146 136 122 126
332 332 328 317 304 287 267 239 239 222 227 233 235 189 195 139 123 104 102 271 197 114 105 104 321 9 334 16 60 60 86 54 126 140 200 212 250 130 146 236 251 216 209 195 194 104 77 114 104 102 122 129 116 106
332 327 331 325 318 266 223 213 215 211 219 219 224 158 263 167 147 129 176 195 157 108 86 60 36 328 38 56 12 78 10 59 329 162 143 150 257 134 132 216 246 205 160 121 125 114 74 186 164 120 117 114 102 92
326 323 332 335 2 98 166 185 194 198 202 207 169 119 99 98 84 34 338 144 98 84 72 104 290 45 0 124 75 334 153 69 15 66 359 115 32 82 256 238 305 116 111 85 80 38 110 114 106 107 104 124 116 130
319 318 335 328 350 103 156 171 189 193 169 117 103 101 86 62 95 156 117 79 58 114 126 96 127 209 346 320 73 11 60 71 292 73 40 58 141 224 225 201 179 181 176 163 90 71 86 117 135 140 129 110 132 170
336 339 341 333 357 167 175 172 181 155 128 115 74 110 108 8 131 135 14 44 18 337 36 101 357 89 96 19 342 65 16 119 97 267 326 71 252 274 239 216 191 170 146 136 109 114 107 149 174 173 187 171 160 171
333 337 341 325 255 222 196 177 152 125 88 70 97 74 122 93 89 89 117 102 281 71 87 203 144 138 309 109 175 354 171 333 76 272 103 285 278 259 320 271 236 155 162 180 122 143 144 143 162 163 181 202 191 197
326 334 338 338 253 227 187 161 131 85 94 106 104 101 135 100 70 88 60 45 104 196 130 117 207 147 276 91 93 323 112 40 209 290 71 274 258 281 309 313 350 332 143 119 95 143 147 146 152 156 160 187 202 205
311 332 342 340 15 188 171 152 110 117 109 43 59 78 93 321 103 128 169 277 178 169 169 144 103 132 19 51 57 78 74 210 5 63 231 239 274 290 273 283 47 38 86 108 92 81 91 119 121 149 186 221 185 211
343 325 339 341 139 120 125 136 131 117 69 100 129 109 112 206 237 177 176 170 194 117 132 107 116 121 179 59 150 86 248 71 46 354 243 256 252 301 267 314 111 151 145 140 143 142 143 156 199 227 223 174 173 232
332 230 272 312 154 146 141 103 77 56 56 80 60 165 142 251 9 232 246 55 350 141 115 79 49 89 52 85 55 97 32 298 201 231 237 253 261 265 196 150 142 164 160 155 161 167 196 193 203 245 230 218 211 234
14 62 344 294 113 115 99 61 35 64 46 52 46 75 305 68 324 0 29 118 33 112 77 57 104 62 352 127 74 211 122 220 249 225 248 280 287 253 193 182 183 165 174 187 191 199 201 199 215 232 264 238 227 222
15 20 36 101 101 81 60 66 58 52 62 39 346 28 144 97 171 174 94 217 343 68 125 103 84 197 104 51 340 191 203 224 223 267 260 247 237 221 188 153 173 176 185 203 212 210 220 230 127 92 271 256 237 234
24 340 22 25 26 42 40 24 73 60 47 28 114 298 343 273 134 44 15 9 72 111 91 175 125 80 151 150 263 245 242 255 233 225 242 257 167 151 166 185 213 210 221 232 222 227 193 184 214 245 254 263 276 268
340 14 8 358 15 87 96 35 57 114 173 180 170 265 169 163 23 358 102 26 124 137 104 48 80 153 220 214 199 243 248 209 212 233 240 264 199 170 188 194 201 216 222 222 202 227 223 217 219 227 236 201 251 266
36 1 15 22 13 51 60 4 40 86 101 166 54 37 61 84 255 92 46 28 56 71 41 82 195 210 185 224 189 196 204 177 120 32 330 320 252 165 219 201 221 228 240 314 285 245 298 311 272 247 232 226 236 274
358 304 9 74 62 61 72 1 57 66 119 82 297 40 32 358 28 34 25 341 52 160 237 216 219 246 225 226 190 144 187 160 178 162 191 245 273 189 255 256 209 140 183 224 254 279 244 230 247 251 230 254 249 255
263 16 72 26 80 58 76 355 85 108 74 110 96 53 70 61 15 15 288 40 227 233 194 187 219 190 145 267 229 208 212 147 126 135 47 73 319 333 299 237 111 262 263 247 223 242 249 252 256 260 275 280 287 293
23 50 47 39 81 42 286 60 89 355 103 250 26 65 17 17 266 351 278 228 254 235 201 191 182 129 182 294 332 280 210 174 224 225 229 231 240 254 261 262 199 225 300 287 210 213 253 273 296 315 318 327 337 317
43 55 76 69 65 176 15 17 19 66 62 49 73 78 324 228 316 57 242 254 249 319 175 203 141 49 355 18 272 248 229 184 217 307 211 157 294 287 226 239 227 219 203 201 262 302 310 297 310 324 319 317 307 288
80 307 96 336 348 84 67 21 356 54 94 349 88 12 291 17 76 233 232 265 268 253 230 178 171 185 187 254 280 265 243 158 170 212 277 167 128 27 355 336 294 249 162 75 330 313 299 316 316 311 304 298 299 313
186 277 136 185 282 118 179 116 182 166 128 106 143 269 28 94 86 244 234 232 230 217 196 187 185 162 260 215 222 279 263 180 113 105 274 174 164 149 180 183 335 303 230 148 143 279 292 295 287 307 322 336 349 27
186 225 253 306 106 108 73 19 65 104 139 164 188 129 90 123 239 250 272 246 212 251 207 214 173 176 205 274 273 292 343 103 132 171 153 135 147 163 145 162 211 238 214 231 240 241 262 290 295 26 29 2 351 324
185 163 162 196 91 23 130 112 147 182 192 198 107 169 172 190 226 235 210 249 224 280 108 337 110 131 142 173 170 117 57 48 61 54 47 34 25 24 68 264 258 301 276 277 287 258 181 142 131 115 92 69 358 357
141 190 110 76 61 45 195 175 204 218 162 154 155 197 230 228 231 311 313 308 325 62 61 32 349 9 36 44 50 40 105 120 101 72 88 273 338 318 314 44 41 31 27 37 79 107 107 97 87 86 91 97 48 40
196 162 97 132 149 208 222 169 210 205 157 164 152 32 354 328 288 296 337 8 45 69 226 221 277 74 132 122 350 3 354 117 145 144 161 204 208 200 105 79 68 56 55 62 61 43 53 52 59 38 43 37 26 20
119 95 79 118 207 269 250 288 342 56 58 64 357 141 199 279 336 346 52 320 309 359 67 54 32 0 125 151 140 120 25 299 248 118 107 102 103 92 93 84 78 73 71 78 79 76 74 55 53 62 55 44 24 24
63 147 130 150 267 307 358 99 134 107 28 114 172 317 12 44 277 299 311 20 60 63 342 167 138 266 248 253 260 251 246 143 141 123 104 96 92 91 87 78 70 74 82 81 77 75 79 81 72 61 52 32 11 355
57 66 83 94 60 54 296 102 73 82 6 324 36 5 317 227 235 274 305 163 162 184 211 240 250 261 260 243 188 129 126 129 129 111 105 106 105 97 82 73 72 77 85 78 73 85 85 89 73 54 35 18 358 349